Flag for Finland Weather past 2 weeks in Espoo, Finland

Now
57 °F

Scattered showers. Broken clouds.


Feels Like: 55 °F
Forecast: 42 / 60 °F
Wind: 12 mph from Northwest

Location: Helsinki-Vantaa

Current Time: May 24, 2015 at 3:14:45 PM

Latest Report: May 24, 2015 at 2:50 PM


Visibility: N/A

Pressure: 29.89 "Hg

Humidity: 48%

Dew point: 37 °F

Location of EspooLocation

Historic Weather in Espoo — Graph

°F

Espoo temperature yesterday

Maximum temperature yesterday: 57 °F (at 1:20 PM)
Minimum temperature yesterday: 43 °F (at 11:20 PM)
Average temperature yesterday: 50 °F

Past Weeks' High & Low Weather Summary

 TemperatureHumidityPressure
High63 °F (May 22, 2:50 PM)100% (May 10, 5:20 AM)30.18 "Hg (May 10, 5:20 AM)
Low30 °F (May 10, 5:20 AM)31% (May 19, 7:20 PM)29.30 "Hg (May 13, 5:50 PM)
Average49 °F68%29.81 "Hg
* Reported May 9 1:20 PM — May 24 1:50 PM, Espoo, Weather by CustomWeather, © 2015

Note: Actual official high and low records may vary slightly from our data, if they occured in-between our weather recording intervals... More about our weather records

Advertising

Espoo weather history for previous 24 hours

 ConditionsComfort  
Time TempWeatherWind HumidityBarometerVisibility
1:50 PM
Sun, May 24
57 °FScattered showers. Partly sunny.13 mph44%29.89 "HgN/A
1:20 PM55 °FScattered showers. Broken clouds.9 mph47%29.92 "HgN/A
12:50 PM52 °FSprinkles. Partly sunny.8 mph62%29.89 "HgN/A
12:20 PM52 °FSprinkles. Partly sunny.10 mph62%29.92 "HgN/A
11:50 AM52 °FSprinkles. Broken clouds.10 mph58%29.89 "HgN/A
11:20 AM52 °FScattered showers. Broken clouds.6 mph62%29.89 "HgN/A
10:50 AM50 °FScattered showers. Partly sunny.5 mph62%29.89 "HgN/A
10:20 AM50 °FScattered showers. Broken clouds.6 mph62%29.89 "HgN/A
9:50 AM48 °FScattered showers. Partly sunny.9 mph71%29.92 "HgN/A
9:20 AM50 °FPartly sunny.8 mph67%29.89 "HgN/A
8:50 AM48 °FPartly sunny.8 mph71%29.89 "HgN/A
8:20 AM48 °FPartly sunny.7 mph71%29.89 "HgN/A
7:50 AM48 °FPartly sunny.9 mph71%29.89 "HgN/A
7:20 AM46 °FSunny.7 mph76%29.89 "Hg10 mi
6:50 AM45 °FSunny.7 mph81%29.89 "Hg10 mi
6:20 AM43 °FSunny.5 mph87%29.89 "Hg10 mi
5:50 AM43 °FSunny.6 mph81%29.89 "Hg10 mi
5:20 AM41 °FClear.5 mph81%29.89 "Hg10 mi
4:50 AM41 °FClear.3 mph87%29.89 "Hg10 mi
4:20 AM41 °FClear.6 mph81%29.89 "Hg10 mi
3:50 AM41 °FClear.6 mph81%29.89 "Hg10 mi
3:20 AM41 °FClear.6 mph81%29.89 "Hg10 mi
2:50 AM41 °FClear.6 mph81%29.89 "Hg10 mi
2:20 AM43 °FClear.8 mph76%29.89 "Hg10 mi
1:50 AM41 °FClear.7 mph81%29.89 "Hg10 mi
1:20 AM43 °FClear.7 mph76%29.89 "Hg10 mi
12:50 AM43 °FClear.8 mph76%29.89 "Hg10 mi
12:20 AM43 °FClear.9 mph76%29.89 "Hg10 mi
11:50 PM
Sat, May 23
43 °FClear.9 mph76%29.89 "Hg10 mi
11:20 PM43 °FPassing clouds.7 mph76%29.89 "HgN/A
10:50 PM45 °FPassing clouds.7 mph71%29.89 "HgN/A
10:20 PM46 °FPassing clouds.8 mph66%29.86 "HgN/A
9:50 PM46 °FPassing clouds.8 mph71%29.86 "HgN/A
9:20 PM48 °FPassing clouds.8 mph62%29.86 "HgN/A
8:50 PM48 °FPassing clouds.9 mph62%29.86 "HgN/A
8:20 PM48 °FPassing clouds.9 mph76%29.86 "HgN/A
7:50 PM48 °FPassing clouds.13 mph76%29.83 "HgN/A
7:20 PM48 °FScattered clouds.8 mph76%29.83 "HgN/A
6:50 PM45 °FSprinkles. Broken clouds.15 mph87%29.83 "HgN/A
6:20 PM45 °FRain showers. Partly sunny.20 mph76%29.83 "Hg5 mi
5:50 PM55 °FPassing clouds.17 mph51%29.80 "HgN/A
5:20 PM57 °FPassing clouds.18 mph48%29.80 "HgN/A
4:50 PM55 °FPassing clouds.18 mph47%29.80 "HgN/A
4:20 PM57 °FPassing clouds.20 mph48%29.80 "HgN/A
3:50 PM57 °FPassing clouds.20 mph48%29.80 "HgN/A
3:20 PM57 °FScattered clouds.21 mph48%29.80 "HgN/A
Weather by CustomWeather, © 2015

See weather overviewHow to use our weather pages